| time (UTC) | temp C | wind direction | speed KPH | gust KPH | rain 1hr cm | rain 24hr cm | rain mn cm | humidity % | barometer mb |
| 20260505091528 | 10 | 129 | 1.6 | 8.0 | 0.00 | 0.00 | 0.00 | 90 | 1011.1 |
| 20260505090025 | 10 | 187 | 0.0 | 4.8 | 0.00 | 0.00 | 0.00 | 90 | 1011.1 |
| 20260505083014 | 10 | 172 | 0.0 | 6.4 | 0.00 | 0.00 | 0.00 | 91 | 1011.1 |
| 20260505081521 | 10 | 169 | 0.0 | 6.4 | 0.00 | 0.00 | 0.00 | 91 | 1011.3 |
| 20260505080003 | 10 | 199 | 0.0 | 4.8 | 0.00 | 0.00 | 0.00 | 91 | 1011.3 |
| 20260505073013 | 10 | 181 | 0.0 | 6.4 | 0.00 | 0.00 | 0.00 | 90 | 1011.5 |
| 20260505071517 | 10 | 190 | 0.0 | 3.2 | 0.00 | 0.00 | 0.00 | 90 | 1011.4 |
| 20260505070019 | 10 | 203 | 0.0 | 1.6 | 0.00 | 0.00 | 0.00 | 90 | 1011.5 |
| 20260505064503 | 10 | 122 | 0.0 | 3.2 | 0.00 | 0.00 | 0.00 | 90 | 1011.4 |
| 20260505063008 | 10 | 224 | 0.0 | 3.2 | 0.00 | 0.00 | 0.00 | 90 | 1011.5 |
| 20260505061516 | 10 | 148 | 0.0 | 6.4 | 0.00 | 0.00 | 0.00 | 89 | 1011.4 |
| 20260505060016 | 10 | 214 | 1.6 | 8.0 | 0.00 | 0.00 | 0.00 | 89 | 1011.5 |
| 20260505054540 | 10 | 219 | 0.0 | 3.2 | 0.00 | 0.00 | 0.00 | 89 | 1011.4 |
| 20260505053008 | 10 | 237 | 0.0 | 4.8 | 0.00 | 0.00 | 0.00 | 89 | 1011.3 |
| 20260505051512 | 10 | 191 | 1.6 | 4.8 | 0.00 | 0.00 | 0.00 | 89 | 1011.4 |
| 20260505041507 | 10 | 105 | 0.0 | 6.4 | 0.00 | 0.00 | 0.00 | 87 | 1011.6 |
| 20260505040014 | 10 | 218 | 0.0 | 8.0 | 0.00 | 0.00 | 0.00 | 86 | 1011.7 |
| 20260505034524 | 10 | 148 | 0.0 | 3.2 | 0.00 | 0.00 | 0.00 | 85 | 1011.6 |
| 20260505033022 | 10 | 179 | 0.0 | 6.4 | 0.00 | 0.00 | 0.00 | 85 | 1011.8 |
| 20260505031523 | 10 | 203 | 0.0 | 3.2 | 0.00 | 0.00 | 0.00 | 84 | 1011.8 |
| 20260505030040 | 11 | 259 | 1.6 | 6.4 | 0.00 | 0.00 | 0.00 | 83 | 1011.8 |
| 20260505024517 | 11 | 212 | 0.0 | 4.8 | 0.00 | 0.00 | 0.00 | 83 | 1011.8 |
| 20260505023019 | 11 | 140 | 1.6 | 6.4 | 0.00 | 0.00 | 0.00 | 82 | 1011.9 |
| 20260505021523 | 11 | 70 | 1.6 | 11.3 | 0.00 | 0.00 | 0.00 | 81 | 1011.9 |
| 20260505020026 | 11 | 193 | 1.6 | 8.0 | 0.00 | 0.00 | 0.00 | 80 | 1011.9 |
| 20260505014532 | 11 | 233 | 1.6 | 6.4 | 0.00 | 0.00 | 0.00 | 79 | 1011.8 |
| 20260505013019 | 11 | 198 | 0.0 | 8.0 | 0.00 | 0.00 | 0.00 | 78 | 1011.6 |
| 20260505011520 | 11 | 219 | 1.6 | 8.0 | 0.00 | 0.00 | 0.00 | 76 | 1011.3 |
| 20260505010024 | 11 | 223 | 1.6 | 11.3 | 0.00 | 0.00 | 0.00 | 75 | 1011.1 |
| 20260505004545 | 12 | 226 | 3.2 | 14.5 | 0.00 | 0.00 | 0.00 | 74 | 1011.0 |
| 20260505003027 | 12 | 233 | 1.6 | 12.9 | 0.00 | 0.00 | 0.00 | 73 | 1010.7 |
| 20260505001518 | 12 | 115 | 1.6 | 8.0 | 0.00 | 0.00 | 0.00 | 73 | 1010.2 |
| 20260505000023 | 12 | 230 | 1.6 | 12.9 | 0.00 | 0.00 | 0.00 | 72 | 1010.3 |
| 20260504234506 | 12 | 243 | 1.6 | 12.9 | 0.00 | 0.00 | 0.00 | 71 | 1010.1 |
| 20260504233003 | 12 | 209 | 0.0 | 12.9 | 0.00 | 0.00 | 0.00 | 71 | 1009.9 |
| 20260504230003 | 12 | 213 | 1.6 | 9.7 | 0.00 | 0.00 | 0.00 | 69 | 1009.6 |
| 20260504224505 | 13 | 221 | 3.2 | 12.9 | 0.00 | 0.00 | 0.00 | 67 | 1009.5 |
| 20260504223006 | 13 | 219 | 3.2 | 12.9 | 0.00 | 0.00 | 0.00 | 64 | 1009.3 |
| 20260504221504 | 14 | 114 | 3.2 | 11.3 | 0.00 | 0.00 | 0.00 | 64 | 1009.3 |
| 20260504214506 | 15 | 53 | 3.2 | 12.9 | 0.00 | 0.00 | 0.00 | 61 | 1009.3 |
| 20260504213019 | 15 | 196 | 3.2 | 16.1 | 0.00 | 0.00 | 0.00 | 60 | 1009.1 |
| 20260504211507 | 15 | 119 | 1.6 | 9.7 | 0.00 | 0.00 | 0.00 | 59 | 1009.1 |
| 20260504210008 | 16 | 169 | 3.2 | 9.7 | 0.00 | 0.00 | 0.00 | 56 | 1009.0 |
| 20260504204511 | 17 | 207 | 1.6 | 14.5 | 0.00 | 0.00 | 0.00 | 53 | 1009.0 |
| 20260504203009 | 17 | 151 | 3.2 | 17.7 | 0.00 | 0.00 | 0.00 | 47 | 1008.8 |
| 20260504201509 | 17 | 119 | 6.4 | 24.1 | 0.00 | 0.00 | 0.00 | 43 | 1008.7 |
| 20260504200010 | 18 | 213 | 6.4 | 16.1 | 0.00 | 0.00 | 0.00 | 43 | 1008.7 |
| 20260504194515 | 18 | 259 | 6.4 | 20.9 | 0.00 | 0.00 | 0.00 | 44 | 1008.7 |
| 20260504193011 | 18 | 153 | 6.4 | 24.1 | 0.00 | 0.00 | 0.00 | 43 | 1008.6 |
| 20260504191513 | 18 | 134 | 3.2 | 16.1 | 0.00 | 0.00 | 0.00 | 45 | 1008.7 |
| 20260504190017 | 18 | 200 | 4.8 | 12.9 | 0.00 | 0.00 | 0.00 | 50 | 1008.7 |
| 20260504184529 | 18 | 165 | 4.8 | 14.5 | 0.00 | 0.00 | 0.00 | 49 | 1009.0 |
| 20260504183014 | 18 | 119 | 3.2 | 16.1 | 0.00 | 0.00 | 0.00 | 50 | 1009.0 |
| 20260504180014 | 19 | 176 | 4.8 | 16.1 | 0.00 | 0.00 | 0.00 | 45 | 1008.9 |
| 20260504174507 | 19 | 248 | 6.4 | 19.3 | 0.00 | 0.00 | 0.00 | 43 | 1008.8 |
| 20260504173013 | 20 | 158 | 4.8 | 19.3 | 0.00 | 0.00 | 0.00 | 39 | 1008.9 |
| 20260504171504 | 20 | 131 | 3.2 | 17.7 | 0.00 | 0.00 | 0.00 | 37 | 1009.2 |